Time,TemperatureF,DewpointF,PressureIn,WindDirection,WindDirectionDegrees,WindSpeedMPH,WindSpeedGustMPH,Humidity,HourlyPrecipIn,Conditions,Clouds,dailyrainin,SoftwareType,DateUTC
2013-02-15 00:01:00,17.0,12.0,30.26,SSW,194,0.0,0.0,81,0.00,,,0.04,,2013-02-15 07:01:00,
2013-02-15 00:11:00,17.0,12.0,30.26,SSW,194,0.0,0.0,81,0.00,,,0.04,,2013-02-15 07:11:00,
2013-02-15 00:21:00,18.0,13.0,30.26,SSW,194,0.0,0.0,81,0.00,,,0.04,,2013-02-15 07:21:00,
2013-02-15 00:31:00,17.0,12.0,30.26,SSW,194,0.0,0.0,81,0.00,,,0.04,,2013-02-15 07:31:00,
2013-02-15 00:42:00,17.0,12.0,30.26,SSW,194,0.0,0.0,81,0.00,,,0.04,,2013-02-15 07:42:00,
2013-02-15 00:52:00,17.0,12.0,30.26,SSW,194,0.0,0.0,81,0.00,,,0.04,,2013-02-15 07:52:00,
2013-02-15 01:01:00,17.0,12.0,30.26,SSW,194,0.0,0.0,81,0.00,,,0.04,,2013-02-15 08:01:00,
2013-02-15 01:11:00,17.0,12.0,30.26,SSW,194,0.0,0.0,81,0.00,,,0.04,,2013-02-15 08:11:00,
2013-02-15 01:21:00,17.0,12.0,30.26,SSW,194,2.0,3.0,81,0.00,,,0.04,,2013-02-15 08:21:00,
2013-02-15 01:31:00,17.0,12.0,30.26,SSW,194,2.0,3.0,81,0.00,,,0.04,,2013-02-15 08:31:00,
2013-02-15 01:42:00,17.0,12.0,30.26,SSW,194,2.0,3.0,81,0.00,,,0.04,,2013-02-15 08:42:00,
2013-02-15 01:53:00,17.0,12.0,30.26,SSW,194,2.0,3.0,81,0.00,,,0.04,,2013-02-15 08:53:00,
2013-02-15 02:01:00,17.0,12.0,30.26,SSW,194,2.0,3.0,81,0.00,,,0.04,,2013-02-15 09:01:00,
2013-02-15 02:22:00,18.0,13.0,30.26,SSW,194,1.0,3.0,81,0.00,,,0.04,,2013-02-15 09:22:00,
2013-02-15 02:32:00,18.0,13.0,30.26,SSW,194,1.0,3.0,81,0.00,,,0.04,,2013-02-15 09:32:00,
2013-02-15 02:42:00,18.0,13.0,30.26,SSW,194,1.0,3.0,81,0.00,,,0.04,,2013-02-15 09:42:00,
2013-02-15 02:52:00,18.0,13.0,30.26,SSW,194,1.0,3.0,81,0.00,,,0.04,,2013-02-15 09:52:00,
2013-02-15 03:01:00,18.0,13.0,30.27,SSW,199,3.0,5.0,81,0.00,,,0.04,,2013-02-15 10:01:00,
2013-02-15 03:11:00,18.0,13.0,30.27,SSW,199,3.0,5.0,81,0.00,,,0.04,,2013-02-15 10:11:00,
2013-02-15 03:21:00,19.0,14.0,30.26,SSW,198,3.0,3.0,80,0.00,,,0.04,,2013-02-15 10:21:00,
2013-02-15 03:31:00,19.0,14.0,30.26,SSW,198,3.0,3.0,80,0.00,,,0.04,,2013-02-15 10:31:00,
2013-02-15 03:41:00,19.0,14.0,30.26,SSW,198,3.0,3.0,80,0.00,,,0.04,,2013-02-15 10:41:00,
2013-02-15 03:52:00,18.0,13.0,30.26,SSW,198,3.0,3.0,79,0.00,,,0.04,,2013-02-15 10:52:00,
2013-02-15 04:01:00,18.0,13.0,30.27,SSW,199,2.0,3.0,79,0.00,,,0.04,,2013-02-15 11:01:00,
2013-02-15 04:11:00,18.0,13.0,30.27,SSW,199,2.0,3.0,79,0.00,,,0.04,,2013-02-15 11:11:00,
2013-02-15 04:22:00,17.0,12.0,30.27,WSW,252,3.0,3.0,79,0.00,,,0.04,,2013-02-15 11:22:00,
2013-02-15 04:32:00,17.0,12.0,30.27,WSW,252,3.0,3.0,79,0.00,,,0.04,,2013-02-15 11:32:00,
2013-02-15 04:42:00,17.0,12.0,30.27,WSW,252,3.0,3.0,79,0.00,,,0.04,,2013-02-15 11:42:00,
2013-02-15 04:52:00,16.0,11.0,30.27,NW,315,3.0,7.0,80,0.00,,,0.04,,2013-02-15 11:52:00,
2013-02-15 05:01:00,16.0,11.0,30.27,NW,315,1.0,3.0,80,0.00,,,0.04,,2013-02-15 12:01:00,
2013-02-15 05:11:00,16.0,11.0,30.27,NW,315,1.0,3.0,80,0.00,,,0.04,,2013-02-15 12:11:00,
2013-02-15 05:21:00,15.0,10.0,30.27,NW,315,2.0,3.0,80,0.00,,,0.04,,2013-02-15 12:21:00,
2013-02-15 05:32:00,15.0,10.0,30.27,NW,315,2.0,3.0,80,0.00,,,0.04,,2013-02-15 12:32:00,
2013-02-15 05:42:00,15.0,10.0,30.27,NW,315,2.0,3.0,80,0.00,,,0.04,,2013-02-15 12:42:00,
2013-02-15 05:52:00,14.0,9.0,30.27,NW,315,2.0,3.0,80,0.00,,,0.04,,2013-02-15 12:52:00,
2013-02-15 06:02:00,13.0,8.0,30.29,NW,315,0.0,2.0,80,0.00,,,0.04,,2013-02-15 13:02:00,
2013-02-15 06:11:00,13.0,8.0,30.29,NW,315,0.0,2.0,80,0.00,,,0.04,,2013-02-15 13:11:00,
2013-02-15 06:21:00,12.0,7.0,30.29,NW,315,0.0,0.0,80,0.00,,,0.04,,2013-02-15 13:21:00,
2013-02-15 06:32:00,12.0,7.0,30.28,NW,315,0.0,0.0,80,0.00,,,0.04,,2013-02-15 13:32:00,
2013-02-15 06:41:00,12.0,7.0,30.28,NW,315,0.0,0.0,80,0.00,,,0.04,,2013-02-15 13:41:00,
2013-02-15 06:52:00,11.0,6.0,30.29,NW,315,0.0,0.0,80,0.00,,,0.04,,2013-02-15 13:52:00,
2013-02-15 07:01:00,11.0,6.0,30.29,NW,315,0.0,0.0,80,0.00,,,0.04,,2013-02-15 14:01:00,
2013-02-15 07:11:00,11.0,6.0,30.29,NW,315,0.0,0.0,80,0.00,,,0.04,,2013-02-15 14:11:00,
2013-02-15 07:21:00,11.0,6.0,30.29,NW,315,0.0,0.0,80,0.00,,,0.04,,2013-02-15 14:21:00,
2013-02-15 07:32:00,11.0,6.0,30.29,NW,315,0.0,0.0,80,0.00,,,0.04,,2013-02-15 14:32:00,
2013-02-15 07:41:00,11.0,6.0,30.29,NW,315,0.0,0.0,80,0.00,,,0.04,,2013-02-15 14:41:00,
2013-02-15 08:01:00,12.0,8.0,30.29,NW,315,2.0,3.0,82,0.00,,,0.04,,2013-02-15 15:01:00,
2013-02-15 08:11:00,12.0,8.0,30.29,NW,315,2.0,3.0,82,0.00,,,0.04,,2013-02-15 15:11:00,
2013-02-15 08:21:00,13.0,9.0,30.29,NW,315,0.0,3.0,83,0.00,,,0.04,,2013-02-15 15:21:00,
2013-02-15 08:32:00,13.0,9.0,30.29,NW,315,0.0,3.0,83,0.00,,,0.04,,2013-02-15 15:32:00,
2013-02-15 08:42:00,13.0,9.0,30.29,NW,315,0.0,3.0,83,0.00,,,0.04,,2013-02-15 15:42:00,
2013-02-15 08:52:00,16.0,12.0,30.29,NW,315,0.0,0.0,84,0.00,,,0.04,,2013-02-15 15:52:00,
2013-02-15 09:01:00,17.0,13.0,30.29,NW,315,0.0,0.0,84,0.00,,,0.04,,2013-02-15 16:01:00,
2013-02-15 09:11:00,17.0,13.0,30.29,NW,315,0.0,0.0,84,0.00,,,0.04,,2013-02-15 16:11:00,
2013-02-15 09:22:00,17.0,13.0,30.29,NW,315,0.0,0.0,84,0.00,,,0.04,,2013-02-15 16:22:00,
2013-02-15 09:32:00,17.0,12.0,30.28,NW,315,1.0,3.0,82,0.00,,,0.04,,2013-02-15 16:32:00,
2013-02-15 09:42:00,17.0,12.0,30.28,NW,315,1.0,3.0,82,0.00,,,0.04,,2013-02-15 16:42:00,
2013-02-15 09:52:00,17.0,12.0,30.28,NW,315,1.0,3.0,82,0.00,,,0.04,,2013-02-15 16:52:00,
2013-02-15 10:01:00,18.0,13.0,30.29,WNW,290,3.0,3.0,81,0.00,,,0.04,,2013-02-15 17:01:00,
2013-02-15 10:11:00,19.0,14.0,30.28,SSW,196,3.0,6.0,80,0.00,,,0.04,,2013-02-15 17:11:00,
2013-02-15 10:21:00,19.0,14.0,30.28,SSW,196,3.0,6.0,80,0.00,,,0.04,,2013-02-15 17:21:00,
2013-02-15 10:32:00,19.0,14.0,30.28,SSW,196,2.0,3.0,80,0.00,,,0.04,,2013-02-15 17:32:00,
2013-02-15 10:42:00,19.0,14.0,30.28,SSW,196,2.0,3.0,80,0.00,,,0.04,,2013-02-15 17:42:00,
2013-02-15 10:52:00,20.0,14.0,30.27,South,190,2.0,5.0,78,0.00,,,0.04,,2013-02-15 17:52:00,
2013-02-15 11:01:00,21.0,15.0,30.27,South,190,2.0,3.0,77,0.00,,,0.04,,2013-02-15 18:01:00,
2013-02-15 11:11:00,21.0,15.0,30.27,South,190,2.0,3.0,77,0.00,,,0.04,,2013-02-15 18:11:00,
2013-02-15 11:21:00,21.0,15.0,30.27,South,190,2.0,3.0,77,0.00,,,0.04,,2013-02-15 18:21:00,
2013-02-15 11:31:00,23.0,16.0,30.26,SSE,163,1.0,3.0,73,0.00,,,0.04,,2013-02-15 18:31:00,
2013-02-15 11:42:00,23.0,16.0,30.26,SSE,163,1.0,3.0,73,0.00,,,0.04,,2013-02-15 18:42:00,
2013-02-15 11:53:00,24.0,16.0,30.26,SSE,163,1.0,3.0,71,0.00,,,0.04,,2013-02-15 18:53:00,
2013-02-15 12:01:00,25.0,16.0,30.26,South,169,2.0,6.0,69,0.00,,,0.04,,2013-02-15 19:01:00,
2013-02-15 12:11:00,25.0,16.0,30.26,South,169,2.0,6.0,69,0.00,,,0.04,,2013-02-15 19:11:00,
2013-02-15 12:22:00,26.0,17.0,30.24,SSE,155,3.0,6.0,69,0.00,,,0.04,,2013-02-15 19:22:00,
2013-02-15 12:32:00,26.0,17.0,30.24,SSE,161,2.0,5.0,68,0.00,,,0.04,,2013-02-15 19:32:00,
2013-02-15 12:41:00,26.0,17.0,30.24,SSE,161,2.0,5.0,68,0.00,,,0.04,,2013-02-15 19:41:00,
2013-02-15 12:52:00,26.0,16.0,30.23,South,173,3.0,6.0,66,0.00,,,0.04,,2013-02-15 19:52:00,
2013-02-15 13:01:00,27.0,17.0,30.23,South,172,3.0,7.0,65,0.00,,,0.04,,2013-02-15 20:01:00,
2013-02-15 13:11:00,27.0,17.0,30.23,South,172,3.0,7.0,65,0.00,,,0.04,,2013-02-15 20:11:00,
2013-02-15 13:21:00,28.0,19.0,30.22,South,186,5.0,8.0,69,0.00,,,0.04,,2013-02-15 20:21:00,
2013-02-15 13:32:00,28.0,19.0,30.21,SSW,194,3.0,7.0,68,0.00,,,0.04,,2013-02-15 20:32:00,
2013-02-15 13:42:00,28.0,19.0,30.21,SSW,194,3.0,7.0,68,0.00,,,0.04,,2013-02-15 20:42:00,
2013-02-15 13:52:00,29.0,19.0,30.19,SSE,161,2.0,6.0,66,0.00,,,0.04,,2013-02-15 20:52:00,
2013-02-15 14:01:00,29.0,19.0,30.19,SSE,161,2.0,6.0,66,0.00,,,0.04,,2013-02-15 21:01:00,
2013-02-15 14:11:00,29.0,19.0,30.19,SSE,161,2.0,6.0,66,0.00,,,0.04,,2013-02-15 21:11:00,
2013-02-15 14:21:00,30.0,20.0,30.18,SSE,168,2.0,5.0,65,0.00,,,0.04,,2013-02-15 21:21:00,
2013-02-15 14:31:00,30.0,20.0,30.18,SE,138,3.0,6.0,66,0.00,,,0.04,,2013-02-15 21:31:00,
2013-02-15 14:42:00,30.0,20.0,30.18,SE,138,3.0,6.0,66,0.00,,,0.04,,2013-02-15 21:42:00,
2013-02-15 14:52:00,30.0,20.0,30.18,SE,138,3.0,6.0,66,0.00,,,0.04,,2013-02-15 21:52:00,
2013-02-15 15:02:00,31.0,21.0,30.15,ESE,107,5.0,6.0,66,0.00,,,0.04,,2013-02-15 22:02:00,
2013-02-15 15:11:00,31.0,21.0,30.15,ESE,107,5.0,6.0,66,0.00,,,0.04,,2013-02-15 22:11:00,
2013-02-15 15:21:00,31.0,21.0,30.14,ESE,118,5.0,9.0,66,0.00,,,0.04,,2013-02-15 22:21:00,
2013-02-15 15:31:00,31.0,21.0,30.14,ESE,118,5.0,9.0,66,0.00,,,0.04,,2013-02-15 22:31:00,
2013-02-15 15:41:00,31.0,21.0,30.14,ESE,118,5.0,9.0,66,0.00,,,0.04,,2013-02-15 22:41:00,
2013-02-15 15:52:00,31.0,22.0,30.13,ENE,71,6.0,10.0,70,0.00,,,0.04,,2013-02-15 22:52:00,
2013-02-15 16:02:00,31.0,23.0,30.12,ENE,72,6.0,9.0,72,0.00,,,0.04,,2013-02-15 23:02:00,
2013-02-15 16:11:00,31.0,23.0,30.12,ENE,72,6.0,9.0,72,0.00,,,0.04,,2013-02-15 23:11:00,
2013-02-15 16:21:00,31.0,22.0,30.11,East,90,7.0,10.0,69,0.00,,,0.04,,2013-02-15 23:21:00,
2013-02-15 16:31:00,31.0,22.0,30.11,East,93,6.0,9.0,69,0.00,,,0.04,,2013-02-15 23:31:00,
2013-02-15 16:42:00,31.0,22.0,30.11,East,93,6.0,9.0,69,0.00,,,0.04,,2013-02-15 23:42:00,
2013-02-15 16:52:00,31.0,22.0,30.08,East,85,6.0,12.0,69,0.00,,,0.04,,2013-02-15 23:52:00,
2013-02-15 17:02:00,31.0,22.0,30.08,East,88,8.0,10.0,69,0.00,,,0.04,,2013-02-16 00:02:00,
2013-02-15 17:11:00,31.0,22.0,30.08,East,88,8.0,10.0,69,0.00,,,0.04,,2013-02-16 00:11:00,
2013-02-15 17:21:00,31.0,22.0,30.08,East,88,8.0,10.0,69,0.00,,,0.04,,2013-02-16 00:21:00,
2013-02-15 17:32:00,31.0,22.0,30.08,East,92,6.0,9.0,70,0.00,,,0.04,,2013-02-16 00:32:00,
2013-02-15 17:41:00,31.0,22.0,30.08,East,92,6.0,9.0,70,0.00,,,0.04,,2013-02-16 00:41:00,
2013-02-15 17:52:00,31.0,23.0,30.05,East,87,6.0,7.0,72,0.00,,,0.04,,2013-02-16 00:52:00,
2013-02-15 18:02:00,31.0,23.0,30.05,East,85,6.0,8.0,71,0.00,,,0.04,,2013-02-16 01:02:00,
2013-02-15 18:11:00,31.0,23.0,30.05,East,85,6.0,8.0,71,0.00,,,0.04,,2013-02-16 01:11:00,
2013-02-15 18:21:00,31.0,23.0,30.05,East,85,6.0,8.0,71,0.00,,,0.04,,2013-02-16 01:21:00,
2013-02-15 18:31:00,31.0,23.0,30.05,East,85,6.0,8.0,71,0.00,,,0.04,,2013-02-16 01:31:00,
2013-02-15 18:41:00,31.0,23.0,30.05,East,85,6.0,8.0,71,0.00,,,0.04,,2013-02-16 01:41:00,
2013-02-15 18:52:00,31.0,23.0,30.03,East,82,5.0,7.0,73,0.00,,,0.04,,2013-02-16 01:52:00,
2013-02-15 19:01:00,31.0,23.0,30.03,East,86,6.0,7.0,73,0.00,,,0.04,,2013-02-16 02:01:00,
2013-02-15 19:11:00,31.0,23.0,30.03,East,86,6.0,7.0,73,0.00,,,0.04,,2013-02-16 02:11:00,
2013-02-15 19:21:00,32.0,23.0,30.01,East,92,4.0,7.0,70,0.00,,,0.04,,2013-02-16 02:21:00,
2013-02-15 19:31:00,31.0,23.0,30.00,East,92,2.0,6.0,71,0.00,,,0.04,,2013-02-16 02:31:00,
2013-02-15 19:42:00,31.0,23.0,30.00,East,92,2.0,6.0,71,0.00,,,0.04,,2013-02-16 02:42:00,
2013-02-15 19:52:00,31.0,23.0,30.00,East,92,2.0,6.0,71,0.00,,,0.04,,2013-02-16 02:52:00,
2013-02-15 20:01:00,31.0,23.0,30.00,East,92,2.0,6.0,71,0.00,,,0.04,,2013-02-16 03:01:00,
2013-02-15 20:11:00,31.0,23.0,30.00,East,92,2.0,6.0,71,0.00,,,0.04,,2013-02-16 03:11:00,
2013-02-15 20:21:00,31.0,23.0,29.97,East,92,0.0,3.0,73,0.00,,,0.04,,2013-02-16 03:21:00,
2013-02-15 20:32:00,32.0,24.0,29.97,East,92,2.0,3.0,73,0.00,,,0.04,,2013-02-16 03:32:00,
2013-02-15 20:42:00,32.0,24.0,29.97,East,92,2.0,3.0,73,0.00,,,0.04,,2013-02-16 03:42:00,
2013-02-15 20:52:00,32.0,24.0,29.96,SSW,195,3.0,5.0,71,0.00,,,0.04,,2013-02-16 03:52:00,
2013-02-15 21:01:00,32.0,23.0,29.96,SSW,195,1.0,3.0,70,0.00,,,0.04,,2013-02-16 04:01:00,
2013-02-15 21:11:00,32.0,23.0,29.96,SSW,195,1.0,3.0,70,0.00,,,0.04,,2013-02-16 04:11:00,
2013-02-15 21:21:00,32.0,23.0,29.96,SSW,195,1.0,3.0,70,0.00,,,0.04,,2013-02-16 04:21:00,
2013-02-15 21:32:00,33.0,24.0,29.95,SSW,195,3.0,5.0,69,0.00,,,0.04,,2013-02-16 04:32:00,
2013-02-15 21:41:00,33.0,24.0,29.95,SSW,195,3.0,5.0,69,0.00,,,0.04,,2013-02-16 04:41:00,
2013-02-15 21:52:00,32.0,23.0,29.94,SSW,198,2.0,6.0,70,0.00,,,0.04,,2013-02-16 04:52:00,
2013-02-15 22:01:00,32.0,24.0,29.94,SSW,203,3.0,5.0,71,0.00,,,0.04,,2013-02-16 05:01:00,
2013-02-15 22:12:00,32.0,24.0,29.94,SSW,203,3.0,5.0,71,0.00,,,0.04,,2013-02-16 05:12:00,
2013-02-15 22:22:00,31.0,24.0,29.94,West,267,7.0,12.0,74,0.00,,,0.00,,2013-02-16 05:22:00,
2013-02-15 22:32:00,30.0,23.0,29.94,West,261,3.0,7.0,76,0.00,,,0.00,,2013-02-16 05:32:00,
2013-02-15 22:42:00,30.0,23.0,29.94,West,261,3.0,7.0,76,0.00,,,0.00,,2013-02-16 05:42:00,
2013-02-15 22:52:00,30.0,24.0,29.94,WNW,293,6.0,12.0,78,0.00,,,0.00,,2013-02-16 05:52:00,
2013-02-15 23:02:00,30.0,24.0,29.95,WNW,302,9.0,12.0,78,0.00,,,0.00,,2013-02-16 06:02:00,
2013-02-15 23:11:00,30.0,24.0,29.95,WNW,302,9.0,12.0,78,0.00,,,0.00,,2013-02-16 06:11:00,
2013-02-15 23:21:00,31.0,25.0,29.95,WNW,288,4.0,10.0,77,0.00,,,0.00,,2013-02-16 06:21:00,
2013-02-15 23:32:00,31.0,24.0,29.95,WNW,288,2.0,6.0,76,0.00,,,0.00,,2013-02-16 06:32:00,
2013-02-15 23:42:00,31.0,24.0,29.95,WNW,288,2.0,6.0,76,0.00,,,0.00,,2013-02-16 06:42:00,
2013-02-15 23:52:00,30.0,23.0,29.95,WNW,288,3.0,5.0,76,0.00,,,0.00,,2013-02-16 06:52:00,